Terug naar catalogus

STARLINK-32577

ActiefCommunicatieVLEO
NORAD 62044·PAYLOAD·🇺🇸 United States

Gelanceerd Nov 21, 2024 vanaf Cape Canaveral Space Force Station

Loading…

Volgende Passages (komende 24 uur)

TLE

VersSource: CelesTrak SupGP

Epoch: Sep 14, 2026, 21:22 UTC

1 62044C 24216N   26257.89076389  .00014626  00000+0  52969-3 0  2572
2 62044  43.0013 274.9105 0001810 272.2902 298.1827 15.27574873    18

Volg STARLINK-32577 in realtime met AllMySat

Download on the App Store